Location: Unspecified
(0.0000°N, 0.0000°E)
Time: 02:20:34
(UTC+00:00)

Envisat - Visible Passes

Search period start: 18 August 2022 00:00
Search period end: 28 August 2022 00:00
Orbit: 763 x 765 km, 98.2° (Epoch: 17 August)

Date Brightness Start Highest point End Pass type
(mag) Time Alt. Az. Time Alt. Az. Time Alt. Az.
18 Aug 3.5 04:29:05 10° N 04:33:12 40° WNW 04:33:12 40° WNW visible
19 Aug 3.7 03:51:57 10° NNE 03:55:47 50° NE 03:55:47 50° NE visible
20 Aug 5.4 03:16:12 10° NE 03:18:23 19° ENE 03:18:23 19° ENE visible
20 Aug 4.3 04:55:12 10° NNW 04:58:34 20° WNW 04:58:34 20° WNW visible
21 Aug 3.3 04:17:04 10° N 04:21:10 51° NW 04:21:10 51° NW visible
22 Aug 4.3 03:40:20 10° NNE 03:43:46 37° ENE 03:43:46 37° ENE visible
23 Aug 5.8 03:05:12 10° ENE 03:06:22 14° ENE 03:06:22 14° ENE visible
23 Aug 3.9 04:42:48 10° NNW 04:46:33 27° WNW 04:46:33 27° WNW visible
24 Aug 3.3 04:05:11 10° N 04:09:09 56° N 04:09:09 56° N visible
25 Aug 4.8 03:28:51 10° NE 03:31:45 27° ENE 03:31:45 27° ENE visible
25 Aug 4.7 05:09:41 10° NW 05:11:57 14° WNW 05:11:57 14° WNW visible
26 Aug 3.6 04:30:38 10° N 04:34:32 36° WNW 04:34:32 36° WNW visible
27 Aug 3.7 03:53:26 10° NNE 03:57:09 49° NE 03:57:09 49° NE visible
